period_start,C,m1,H,J0,J1,J2,J3,J4,J5,JA,JB,JC,JD,JJ,JK,JN,#
2013-09-22 00:00:17,0.01,0.09,0.00,24.21,26.30,28.87,5.94,29.29,1022.48,2055.05,3476.00,3344.05,3627.96,350.58,325.04,15.02,0000 0000 0000 0000 000000
2013-09-22 00:01:17,-0.01,0.09,0.00,24.20,26.30,28.86,5.83,29.29,1022.48,2055.03,3476.00,3344.04,3627.95,349.07,323.81,15.02,0000 0000 0000 0000 000000
2013-09-22 00:02:17,-0.01,0.09,0.00,24.20,26.30,28.84,5.90,29.38,1022.48,2055.07,3476.00,3344.05,3627.95,349.26,323.87,15.03,0000 0000 0000 0000 000000
2013-09-22 00:03:18,0.01,0.09,0.00,24.20,26.30,28.86,5.98,29.17,1022.48,2055.04,3476.00,3344.07,3627.96,350.50,324.90,15.03,0000 0000 0000 0000 000000
2013-09-22 00:04:18,-0.03,0.09,0.00,24.22,26.30,28.85,6.11,29.54,1022.48,2055.04,3476.00,3344.04,3627.98,350.62,324.90,15.04,0000 0000 0000 0000 000000
2013-09-22 00:05:18,0.00,0.09,0.00,24.21,26.30,28.84,5.84,29.25,1022.48,2055.10,3476.00,3344.04,3627.98,349.44,323.99,15.05,0000 0000 0000 0000 000000
2013-09-22 00:06:19,0.06,0.09,0.00,24.20,26.30,28.81,6.04,29.33,1022.47,2055.25,3476.00,3344.08,3627.97,349.85,324.38,15.05,0000 0000 0000 0000 000000
2013-09-22 00:07:19,0.10,0.09,0.00,24.22,26.30,28.85,6.00,29.33,1022.48,2055.22,3476.00,3344.09,3627.95,349.48,324.02,15.06,0000 0000 0000 0000 000000
2013-09-22 00:08:19,-0.02,0.09,0.00,24.21,26.30,28.79,5.96,29.33,1022.48,2055.16,3476.00,3344.06,3627.97,350.42,324.89,15.06,0000 0000 0000 0000 000000
2013-09-22 00:09:20,-0.04,0.09,0.00,24.22,26.30,28.83,5.77,29.29,1022.48,2055.14,3476.00,3344.07,3627.95,349.04,323.61,15.07,0000 0000 0000 0000 000000
2013-09-22 00:10:20,-0.02,0.09,0.00,24.20,26.29,28.86,6.07,29.58,1022.48,2055.12,3476.00,3344.03,3627.95,349.83,324.36,15.07,0000 0000 0000 0000 000000
2013-09-22 00:11:20,0.00,0.09,0.00,24.21,26.30,28.85,5.99,29.75,1022.48,2055.19,3476.00,3344.03,3627.95,350.38,324.95,15.08,0000 0000 0000 0000 000000
2013-09-22 00:12:21,0.03,0.09,0.00,24.24,26.30,28.81,5.94,29.38,1022.48,2055.25,3476.00,3344.06,3627.97,349.96,324.44,15.09,0000 0000 0000 0000 000000
2013-09-22 00:13:21,0.05,0.09,0.00,24.24,26.30,28.84,5.91,29.21,1022.48,2055.19,3476.00,3344.02,3627.96,349.91,324.39,15.09,0000 0000 0000 0000 000000
2013-09-22 00:14:21,-0.03,0.09,0.00,24.21,26.29,28.80,5.83,29.33,1022.48,2055.16,3476.00,3344.01,3627.87,349.81,323.89,15.10,0000 0000 0000 0000 000000
2013-09-22 00:15:21,0.00,0.09,0.00,24.21,26.29,28.83,5.81,29.29,1022.48,2055.15,3476.00,3344.05,3627.88,349.65,324.18,15.10,0000 0000 0000 0000 000000
2013-09-22 00:16:22,-0.01,0.09,0.00,24.22,26.29,28.84,5.97,29.13,1022.48,2055.13,3476.00,3344.06,3627.90,350.57,325.03,15.11,0000 0000 0000 0000 000000
2013-09-22 00:17:22,-0.03,0.09,0.00,24.22,26.29,28.81,5.98,29.25,1022.48,2055.09,3476.00,3344.06,3627.92,350.40,324.91,15.12,0000 0000 0000 0000 000000
2013-09-22 00:18:22,-0.02,0.09,0.00,24.22,26.28,28.84,6.10,29.33,1022.48,2055.13,3476.00,3344.09,3627.90,350.83,324.96,15.12,0000 0000 0000 0000 000000
2013-09-22 00:19:22,0.02,0.09,0.00,24.19,26.28,28.86,6.07,29.33,1022.48,2055.14,3475.99,3344.06,3627.85,350.96,325.19,15.13,0000 0000 0000 0000 000000
2013-09-22 00:20:23,0.02,0.09,0.00,24.17,26.28,28.83,6.10,29.38,1022.48,2055.18,3475.99,3344.03,3627.85,350.17,325.04,15.13,0000 0000 0000 0000 000000
2013-09-22 00:21:23,0.03,0.09,0.00,24.17,26.27,28.81,6.04,29.63,1022.48,2055.18,3475.99,3344.05,3627.86,350.43,324.43,15.14,0000 0000 0000 0000 000000
2013-09-22 00:22:23,0.01,0.09,0.00,24.19,26.27,28.82,5.68,29.33,1022.48,2055.24,3475.99,3344.06,3627.86,350.04,324.79,15.15,0000 0000 0000 0000 000000
2013-09-22 00:23:23,0.01,0.09,0.00,24.20,26.27,28.83,5.81,29.25,1022.48,2055.20,3475.99,3344.07,3627.79,349.38,323.94,15.15,0000 0000 0000 0000 000000
2013-09-22 00:24:24,0.00,0.09,0.00,24.19,26.27,28.80,5.95,29.42,1022.48,2055.26,3475.99,3344.08,3627.84,350.66,325.15,15.16,0000 0000 0000 0000 000000
2013-09-22 00:25:24,0.01,0.09,0.00,24.19,26.27,28.83,5.94,29.38,1022.48,2055.24,3475.99,3344.09,3627.81,349.37,323.93,15.16,0000 0000 0000 0000 000000
2013-09-22 00:26:24,-0.01,0.09,0.00,24.20,26.27,28.87,6.04,29.25,1022.48,2055.22,3475.99,3344.06,3627.81,350.77,325.24,15.17,0000 0000 0000 0000 000000
2013-09-22 00:27:25,-0.00,0.09,0.00,24.19,26.27,28.81,5.79,29.58,1022.48,2055.29,3475.99,3344.03,3627.82,349.32,323.62,15.17,0000 0000 0000 0000 000000
2013-09-22 00:28:25,0.03,0.09,0.00,24.18,26.27,28.81,5.92,29.38,1022.48,2055.29,3475.98,3344.02,3627.74,349.69,324.26,15.18,0000 0000 0000 0000 000000
2013-09-22 00:29:25,0.02,0.09,0.00,24.21,26.27,28.78,6.01,29.42,1022.48,2055.30,3475.98,3344.02,3627.75,350.22,324.66,15.19,0000 0000 0000 0000 000000
2013-09-22 00:30:25,0.01,0.09,0.00,24.21,26.27,28.81,6.08,29.25,1022.48,2055.36,3475.98,3344.04,3627.81,351.13,325.55,15.19,0000 0000 0000 0000 000000
2013-09-22 00:31:26,0.05,0.09,0.00,24.23,26.27,28.81,5.93,29.38,1022.48,2055.35,3475.97,3344.04,3627.73,349.95,324.45,15.20,0000 0000 0000 0000 000000
2013-09-22 00:32:26,-0.01,0.09,0.00,24.23,26.27,28.82,6.12,29.33,1022.48,2055.32,3475.95,3344.04,3627.69,350.68,325.12,15.20,0000 0000 0000 0000 000000
2013-09-22 00:33:26,0.01,0.09,0.00,24.23,26.27,28.81,5.93,29.21,1022.48,2055.37,3475.96,3344.04,3627.77,350.58,324.72,15.21,0000 0000 0000 0000 000000
2013-09-22 00:34:26,0.04,0.09,0.00,24.22,26.27,28.81,6.03,29.63,1022.48,2055.35,3475.96,3344.05,3627.69,350.11,324.73,15.22,0000 0000 0000 0000 000000
2013-09-22 00:35:27,-0.06,0.09,0.00,24.20,26.27,28.85,6.08,29.29,1022.50,2055.23,3475.95,3344.05,3627.48,350.89,325.00,15.22,0000 0000 0000 0000 000000
2013-09-22 00:36:27,-0.05,0.09,0.00,24.20,26.27,28.84,6.14,29.46,1022.49,2055.21,3475.90,3344.05,3627.40,350.41,324.43,15.23,0000 0000 0000 0000 000000
2013-09-22 00:37:27,0.00,0.09,0.00,24.21,26.27,28.79,6.05,29.38,1022.49,2055.19,3475.90,3344.04,3627.39,350.96,325.41,15.23,0000 0000 0000 0000 000000
2013-09-22 00:38:28,0.04,0.09,0.00,24.22,26.27,28.82,5.83,29.25,1022.48,2055.32,3475.93,3344.05,3627.58,349.67,324.31,15.24,0000 0000 0000 0000 000000
2013-09-22 00:39:28,0.01,0.09,0.00,24.22,26.27,28.84,6.10,29.29,1022.48,2055.29,3475.92,3344.05,3627.49,350.48,324.77,15.24,0000 0000 0000 0000 000000
2013-09-22 00:40:28,-0.01,0.09,0.00,24.23,26.27,28.86,6.13,29.33,1022.49,2055.28,3475.93,3344.03,3627.35,350.63,325.15,15.25,0000 0000 0000 0000 000000
2013-09-22 00:41:29,0.04,0.09,0.00,24.24,26.27,28.86,6.05,29.71,1022.49,2055.28,3475.91,3344.02,3627.26,350.16,324.63,15.26,0000 0000 0000 0000 000000
2013-09-22 00:42:29,0.00,0.09,0.00,24.21,26.27,28.82,6.04,29.67,1022.49,2055.20,3475.64,3344.00,3627.15,349.93,324.69,15.26,0000 0000 0000 0000 000000
2013-09-22 00:43:29,-0.02,0.09,0.00,24.19,26.27,28.80,5.96,29.50,1022.49,2055.13,3475.45,3344.00,3627.09,349.68,324.24,15.27,0000 0000 0000 0000 000000
2013-09-22 00:44:30,-0.01,0.09,0.00,24.22,26.27,28.82,6.01,29.46,1022.50,2055.15,3475.38,3344.00,3627.10,349.90,324.42,15.27,0000 0000 0000 0000 000000
2013-09-22 00:45:30,-0.01,0.09,0.00,24.21,26.27,28.84,5.80,29.29,1022.49,2055.21,3475.66,3344.01,3627.20,349.13,323.81,15.28,0000 0000 0000 0000 000000
2013-09-22 00:46:30,0.03,0.09,0.00,24.21,26.27,28.86,6.00,29.17,1022.49,2055.27,3475.82,3344.02,3627.24,350.26,324.62,15.29,0000 0000 0000 0000 000000
2013-09-22 00:47:31,-0.01,0.09,0.00,24.23,26.27,28.85,5.95,29.42,1022.49,2055.18,3475.76,3344.02,3627.20,349.83,324.05,15.29,0000 0000 0000 0000 000000
2013-09-22 00:48:31,-0.02,0.09,0.00,24.24,26.27,28.80,5.99,29.29,1022.51,2055.21,3475.68,3344.02,3627.15,350.23,324.11,15.30,0000 0000 0000 0000 000000
2013-09-22 00:49:31,0.01,0.09,0.00,24.26,26.27,28.84,6.05,29.54,1022.53,2055.19,3475.56,3344.00,3627.14,349.52,323.71,15.30,0000 0000 0000 0000 000000
2013-09-22 00:50:31,0.03,0.09,0.00,24.26,26.27,28.81,5.99,29.33,1022.49,2055.27,3475.44,3344.01,3627.18,350.03,324.69,15.31,0000 0000 0000 0000 000000
2013-09-22 00:51:32,0.07,0.09,0.00,24.26,26.27,28.82,5.92,29.29,1022.49,2055.42,3475.54,3344.04,3627.13,350.17,324.62,15.32,0000 0000 0000 0000 000000
2013-09-22 00:52:32,0.06,0.09,0.00,24.24,26.27,28.80,6.02,29.42,1022.51,2055.48,3475.62,3344.04,3627.18,349.79,324.28,15.32,0000 0000 0000 0000 000000
2013-09-22 00:53:32,0.06,0.09,0.00,24.25,26.27,28.82,5.97,29.29,1022.54,2055.62,3475.73,3344.05,3627.32,350.06,324.54,15.33,0000 0000 0000 0000 000000
2013-09-22 00:54:32,0.04,0.09,0.00,24.23,26.27,28.82,6.07,29.25,1022.56,2055.61,3475.67,3344.03,3627.18,350.19,324.66,15.33,0000 0000 0000 0000 000000
2013-09-22 00:55:32,0.03,0.09,0.00,24.23,26.27,28.82,5.93,29.42,1022.52,2055.76,3475.69,3344.02,3627.20,350.11,324.38,15.34,0000 0000 0000 0000 000000
2013-09-22 00:56:33,0.09,0.09,0.00,24.22,26.27,28.83,6.03,29.25,1022.54,2055.84,3475.83,3344.07,3627.35,349.59,324.13,15.34,0000 0000 0000 0000 000000
2013-09-22 00:57:33,0.04,0.09,0.00,24.23,26.27,28.84,5.88,29.33,1022.52,2055.80,3475.80,3344.07,3627.28,349.43,323.96,15.35,0000 0000 0000 0000 000000
2013-09-22 00:58:33,-0.03,0.09,0.00,24.25,26.27,28.81,5.83,29.38,1022.55,2055.68,3475.60,3344.04,3627.13,348.94,323.50,15.36,0000 0000 0000 0000 000000
2013-09-22 00:59:34,-0.03,0.09,0.00,24.25,26.27,28.80,5.88,29.17,1022.62,2055.63,3475.59,3344.03,3627.08,349.46,324.01,15.36,0000 0000 0000 0000 000000
2013-09-22 01:00:34,0.00,0.09,0.00,24.27,26.27,28.80,6.06,29.29,1022.66,2055.61,3475.45,3344.02,3627.03,349.89,324.40,15.37,0000 0000 0000 0000 000000
2013-09-22 01:01:34,-0.05,0.09,0.00,24.26,26.27,28.86,6.03,29.42,1022.73,2055.41,3475.25,3344.00,3627.01,349.92,324.46,15.37,0000 0000 0000 0000 000000
2013-09-22 01:02:35,-0.06,0.09,0.00,24.24,26.27,28.82,5.89,29.21,1022.74,2055.40,3475.15,3344.00,3627.00,349.41,324.22,15.38,0000 0000 0000 0000 000000
2013-09-22 01:03:35,0.06,0.09,0.00,24.25,26.27,28.82,5.95,29.25,1022.76,2055.61,3475.19,3344.01,3627.01,349.78,324.37,15.39,0000 0000 0000 0000 000000
2013-09-22 01:04:35,0.05,0.09,0.00,24.26,26.27,28.87,5.97,29.29,1022.80,2055.57,3475.16,3344.01,3627.03,349.83,324.42,15.39,0000 0000 0000 0000 000000
2013-09-22 01:05:35,0.01,0.09,0.00,24.26,26.27,28.81,6.04,29.58,1022.83,2055.53,3475.16,3344.02,3627.01,350.17,324.76,15.40,0000 0000 0000 0000 000000
2013-09-22 01:06:36,-0.04,0.09,0.00,24.26,26.27,28.78,5.91,29.29,1022.85,2055.42,3475.08,3344.00,3627.01,349.40,324.02,15.40,0000 0000 0000 0000 000000
2013-09-22 01:07:36,-0.06,0.09,0.00,24.25,26.27,28.79,6.04,29.38,1022.88,2055.43,3475.08,3344.01,3627.00,351.07,325.14,15.41,0000 0000 0000 0000 000000
2013-09-22 01:08:36,0.05,0.09,0.00,24.23,26.27,28.78,6.02,29.42,1022.90,2055.55,3475.07,3344.00,3627.00,349.45,324.12,15.41,0000 0000 0000 0000 000000
2013-09-22 01:09:36,0.03,0.09,0.00,24.23,26.27,28.84,6.06,29.71,1022.80,2055.43,3475.05,3344.00,3627.00,349.89,324.77,15.42,0000 0000 0000 0000 000000
2013-09-22 01:10:37,-0.06,0.09,0.00,24.21,26.27,28.81,5.83,29.46,1022.84,2055.40,3475.01,3344.00,3627.00,349.39,324.30,15.43,0000 0000 0000 0000 000000
2013-09-22 01:11:37,0.02,0.09,0.00,24.24,26.27,28.79,5.87,29.54,1022.81,2055.54,3475.00,3344.02,3627.01,349.46,324.25,15.43,0000 0000 0000 0000 000000
2013-09-22 01:12:37,0.12,0.09,0.00,24.25,26.27,28.82,5.94,29.33,1022.77,2055.67,3475.00,3344.02,3627.01,350.02,324.59,15.44,0000 0000 0000 0000 000000
2013-09-22 01:13:38,0.02,0.09,0.00,24.23,26.27,28.88,5.97,29.50,1022.74,2055.43,3475.00,3344.00,3627.00,350.31,324.65,15.44,0000 0000 0000 0000 000000
2013-09-22 01:14:38,-0.13,0.09,0.00,24.23,26.27,28.83,5.90,29.46,1022.81,2055.45,3475.01,3344.00,3627.00,350.59,324.78,15.45,0000 0000 0000 0000 000000
2013-09-22 01:15:38,-0.03,0.09,0.00,24.24,26.27,28.83,5.90,29.25,1022.81,2055.47,3475.01,3344.00,3627.00,350.42,324.42,15.46,0000 0000 0000 0000 000000
2013-09-22 01:16:39,0.02,0.09,0.00,24.25,26.27,28.82,6.10,29.38,1022.89,2055.50,3475.00,3344.00,3627.00,350.15,324.74,15.46,0000 0000 0000 0000 000000
2013-09-22 01:17:39,0.00,0.09,0.00,24.27,26.27,28.83,5.92,29.21,1022.93,2055.43,3475.00,3344.00,3627.00,350.56,325.06,15.47,0000 0000 0000 0000 000000
2013-09-22 01:18:39,-0.01,0.09,0.00,24.27,26.27,28.77,5.89,29.50,1022.92,2055.37,3475.00,3344.00,3627.00,350.71,325.24,15.47,0000 0000 0000 0000 000000
2013-09-22 01:19:40,-0.01,0.09,0.00,24.25,26.27,28.79,5.75,29.42,1022.94,2055.32,3475.00,3344.00,3627.00,349.22,323.88,15.48,0000 0000 0000 0000 000000
2013-09-22 01:20:40,-0.07,0.09,0.00,24.25,26.27,28.79,6.01,29.50,1022.96,2055.25,3475.00,3344.00,3627.00,349.74,324.38,15.49,0000 0000 0000 0000 000000
2013-09-22 01:21:40,-0.06,0.09,0.00,24.24,26.27,28.82,5.91,29.42,1022.94,2055.26,3475.00,3344.00,3626.99,350.23,324.67,15.49,0000 0000 0000 0000 000000
2013-09-22 01:22:40,0.02,0.09,0.00,24.26,26.27,28.86,5.93,29.29,1022.93,2055.28,3474.99,3344.00,3626.99,349.73,324.35,15.50,0000 0000 0000 0000 000000
2013-09-22 01:23:41,-0.02,0.09,0.00,24.26,26.27,28.84,5.90,29.21,1022.92,2055.21,3474.98,3344.00,3626.99,349.81,324.42,15.50,0000 0000 0000 0000 000000
2013-09-22 01:24:41,-0.02,0.09,0.00,24.25,26.27,28.83,5.95,29.42,1022.91,2055.22,3474.98,3344.00,3626.99,349.92,324.94,15.51,0000 0000 0000 0000 000000
2013-09-22 01:25:41,-0.00,0.09,0.00,24.25,26.27,28.82,5.97,29.33,1022.91,2055.20,3474.99,3344.00,3626.97,350.57,324.79,15.51,0000 0000 0000 0000 000000
2013-09-22 01:26:42,-0.01,0.09,0.00,24.27,26.27,28.78,5.96,29.46,1022.91,2055.17,3474.96,3343.97,3626.95,350.35,324.56,15.52,0000 0000 0000 0000 000000
2013-09-22 01:27:42,-0.00,0.09,0.00,24.25,26.27,28.79,6.07,29.21,1022.92,2055.16,3474.95,3343.99,3626.96,349.96,324.57,15.53,0000 0000 0000 0000 000000
2013-09-22 01:28:42,-0.01,0.09,0.00,24.24,26.27,28.79,6.04,29.38,1022.95,2055.19,3474.95,3343.99,3626.98,350.44,324.58,15.53,0000 0000 0000 0000 000000
2013-09-22 01:29:42,0.03,0.09,0.00,24.26,26.27,28.82,6.02,29.21,1022.96,2055.32,3474.97,3343.99,3626.99,350.57,325.14,15.54,0000 0000 0000 0000 000000
2013-09-22 01:30:42,0.04,0.09,0.00,24.26,26.27,28.83,5.96,29.17,1022.96,2055.21,3474.91,3343.98,3626.97,350.17,324.98,15.54,0000 0000 0000 0000 000000
2013-09-22 01:31:43,-0.03,0.09,0.00,24.28,26.27,28.86,5.99,29.58,1022.96,2055.20,3474.90,3343.99,3626.96,348.98,323.64,15.55,0000 0000 0000 0000 000000
2013-09-22 01:32:43,0.00,0.09,0.00,24.28,26.27,28.86,5.93,29.33,1022.96,2055.23,3474.88,3343.95,3626.92,350.63,325.63,15.56,0000 0000 0000 0000 000000
2013-09-22 01:33:43,0.01,0.09,0.00,24.27,26.27,28.81,5.96,29.17,1022.96,2055.18,3474.88,3343.97,3626.93,349.83,324.44,15.56,0000 0000 0000 0000 000000
2013-09-22 01:34:43,-0.03,0.09,0.00,24.28,26.27,28.83,5.95,29.21,1022.96,2055.11,3474.76,3343.98,3626.84,350.68,325.22,15.57,0000 0000 0000 0000 000000
2013-09-22 01:35:44,-0.01,0.09,0.00,24.27,26.27,28.83,5.96,29.42,1022.96,2055.15,3474.77,3343.96,3626.87,350.15,324.73,15.57,0000 0000 0000 0000 000000
2013-09-22 01:36:44,0.02,0.09,0.00,24.29,26.27,28.86,5.99,29.42,1022.96,2055.14,3474.79,3343.97,3626.89,350.07,324.14,15.58,0000 0000 0000 0000 000000
2013-09-22 01:37:44,-0.00,0.09,0.00,24.30,26.27,28.87,6.14,29.17,1022.96,2055.16,3474.69,3343.98,3626.81,349.77,324.35,15.58,0000 0000 0000 0000 000000
2013-09-22 01:38:45,0.02,0.09,0.00,24.29,26.27,28.80,6.09,29.58,1022.96,2055.13,3474.48,3343.97,3626.68,350.30,324.85,15.59,0000 0000 0000 0000 000000
2013-09-22 01:39:45,0.05,0.09,0.00,24.31,26.27,28.86,5.99,29.25,1022.96,2055.16,3474.45,3343.98,3626.62,350.58,325.09,15.60,0000 0000 0000 0000 000000
2013-09-22 01:40:45,0.00,0.09,0.00,24.30,26.27,28.86,6.08,29.42,1022.96,2055.21,3474.57,3343.99,3626.70,350.97,325.43,15.60,0000 0000 0000 0000 000000
2013-09-22 01:41:45,0.02,0.09,0.00,24.28,26.27,28.84,5.94,29.58,1022.96,2055.20,3474.47,3343.97,3626.68,350.78,325.26,15.61,0000 0000 0000 0000 000000
2013-09-22 01:42:45,0.01,0.09,0.00,24.28,26.27,28.83,5.90,29.92,1022.96,2055.14,3474.20,3343.95,3626.34,348.94,323.38,15.61,0000 0000 0000 0000 000000
2013-09-22 01:43:45,0.02,0.09,0.00,24.28,26.27,28.85,5.95,29.79,1022.96,2055.13,3474.09,3343.95,3626.23,349.63,324.24,15.62,0000 0000 0000 0000 000000
2013-09-22 01:44:46,-0.00,0.09,0.00,24.26,26.27,28.81,5.98,29.38,1022.97,2055.08,3474.09,3343.91,3626.22,350.62,325.18,15.63,0000 0000 0000 0000 000000
2013-09-22 01:45:46,-0.01,0.09,0.00,24.27,26.27,28.83,6.11,29.25,1022.97,2055.06,3474.08,3343.91,3626.24,349.16,323.81,15.63,0000 0000 0000 0000 000000
2013-09-22 01:46:46,-0.00,0.09,0.00,24.27,26.27,28.82,5.94,29.46,1022.97,2055.10,3474.06,3343.91,3626.25,349.56,324.86,15.64,0000 0000 0000 0000 000000
2013-09-22 01:47:47,0.05,0.09,0.00,24.26,26.28,28.84,6.06,29.46,1022.97,2055.12,3474.05,3343.92,3626.24,349.98,324.79,15.64,0000 0000 0000 0000 000000
2013-09-22 01:48:47,-0.01,0.09,0.00,24.29,26.28,28.82,5.88,29.21,1022.97,2055.12,3474.07,3343.94,3626.27,349.68,324.28,15.65,0000 0000 0000 0000 000000
2013-09-22 01:49:47,0.01,0.09,0.00,24.29,26.28,28.81,5.82,29.29,1022.97,2055.13,3474.05,3343.94,3626.20,349.94,323.89,15.66,0000 0000 0000 0000 000000
2013-09-22 01:50:47,0.01,0.09,0.00,24.30,26.28,28.87,6.03,29.21,1022.97,2055.12,3474.05,3343.97,3626.12,350.60,324.65,15.66,0000 0000 0000 0000 000000
2013-09-22 01:51:48,-0.02,0.09,0.00,24.30,26.28,28.86,6.19,29.54,1022.96,2055.13,3474.02,3343.96,3626.14,350.28,325.37,15.67,0000 0000 0000 0000 000000
2013-09-22 01:52:48,0.02,0.09,0.00,24.30,26.28,28.83,5.98,29.29,1022.96,2055.07,3474.00,3343.87,3626.07,349.48,323.74,15.67,0000 0000 0000 0000 000000
2013-09-22 01:53:48,-0.01,0.09,0.00,24.31,26.28,28.84,5.96,29.33,1022.97,2055.03,3474.01,3343.82,3626.07,350.43,324.79,15.68,0000 0000 0000 0000 000000
2013-09-22 01:54:48,-0.02,0.09,0.00,24.31,26.29,28.84,6.02,29.25,1022.96,2055.02,3474.01,3343.86,3626.07,349.74,324.30,15.68,0000 0000 0000 0000 000000
2013-09-22 01:55:48,-0.00,0.09,0.00,24.30,26.29,28.85,5.82,29.50,1022.97,2055.05,3474.00,3343.84,3626.06,349.58,324.18,15.69,0000 0000 0000 0000 000000
2013-09-22 01:56:49,0.02,0.09,0.00,24.30,26.29,28.84,5.91,29.33,1022.96,2055.11,3474.00,3343.84,3626.06,349.30,323.92,15.70,0000 0000 0000 0000 000000
2013-09-22 01:57:49,0.03,0.09,0.00,24.31,26.29,28.84,5.96,29.46,1022.96,2055.09,3474.01,3343.82,3626.03,350.29,324.82,15.70,0000 0000 0000 0000 000000
2013-09-22 01:58:49,-0.00,0.09,0.00,24.31,26.29,28.84,5.91,29.25,1022.96,2055.06,3474.00,3343.69,3626.01,349.99,324.59,15.71,0000 0000 0000 0000 000000
2013-09-22 01:59:49,0.01,0.09,0.00,24.30,26.30,28.85,6.13,29.33,1022.96,2055.03,3474.00,3343.59,3626.00,349.95,324.52,15.71,0000 0000 0000 0000 000000
2013-09-22 02:00:49,0.00,0.09,0.00,24.31,26.29,28.79,6.01,29.17,1022.96,2055.05,3474.00,3343.59,3626.00,350.42,324.94,15.72,0000 0000 0000 0000 000000
2013-09-22 02:01:50,0.02,0.09,0.00,24.30,26.30,28.82,5.69,29.42,1022.96,2055.07,3474.00,3343.60,3626.00,348.39,323.43,15.73,0000 0000 0000 0000 000000
2013-09-22 02:02:50,0.00,0.09,0.00,24.32,26.30,28.88,5.68,29.25,1022.97,2055.09,3474.00,3343.76,3626.02,348.69,323.41,15.73,0000 0000 0000 0000 000000
2013-09-22 02:03:50,0.00,0.09,0.00,24.32,26.30,28.80,5.82,29.25,1022.97,2055.28,3474.00,3343.87,3626.10,350.56,325.17,15.74,0000 0000 0000 0000 000000
2013-09-22 02:04:50,0.15,0.09,0.00,24.32,26.30,28.86,5.92,29.58,1022.98,2055.28,3474.00,3343.90,3626.04,349.59,324.17,15.74,0000 0000 0000 0000 000000
2013-09-22 02:05:51,-0.01,0.09,0.00,24.33,26.30,28.83,5.93,29.25,1022.98,2055.31,3474.02,3343.94,3626.07,350.16,324.69,15.75,0000 0000 0000 0000 000000
2013-09-22 02:06:51,0.04,0.09,0.00,24.33,26.30,28.83,5.99,29.58,1022.97,2055.36,3474.01,3343.91,3626.06,350.15,324.94,15.75,0000 0000 0000 0000 000000
2013-09-22 02:07:51,-0.01,0.09,0.00,24.35,26.30,28.84,5.94,29.46,1022.96,2055.22,3474.00,3343.87,3626.04,349.92,324.80,15.76,0000 0000 0000 0000 000000
2013-09-22 02:08:51,-0.09,0.09,0.00,24.33,26.30,28.83,5.99,29.33,1022.97,2055.19,3474.00,3343.89,3626.03,349.14,323.44,15.77,0000 0000 0000 0000 000000
2013-09-22 02:09:51,-0.02,0.09,0.00,24.32,26.30,28.86,5.91,29.25,1022.98,2055.21,3474.02,3343.92,3626.01,350.35,324.86,15.77,0000 0000 0000 0000 000000
2013-09-22 02:10:52,0.02,0.09,0.00,24.34,26.30,28.85,5.98,29.25,1022.97,2055.26,3474.01,3343.96,3626.01,350.76,324.83,15.78,0000 0000 0000 0000 000000
2013-09-22 02:11:52,0.02,0.09,0.00,24.33,26.30,28.85,5.92,29.33,1022.96,2055.17,3474.00,3343.88,3626.02,349.98,324.60,15.78,0000 0000 0000 0000 000000
2013-09-22 02:12:52,-0.06,0.09,0.00,24.32,26.30,28.86,5.85,29.58,1022.98,2055.13,3474.00,3343.83,3626.03,349.66,324.23,15.79,0000 0000 0000 0000 000000
2013-09-22 02:13:52,-0.01,0.09,0.00,24.32,26.30,28.89,6.07,29.42,1022.97,2055.19,3474.00,3343.87,3626.02,350.61,325.11,15.80,0000 0000 0000 0000 000000
2013-09-22 02:14:53,0.04,0.09,0.00,24.32,26.30,28.91,5.98,29.25,1022.98,2055.18,3474.00,3343.88,3626.00,350.13,324.67,15.80,0000 0000 0000 0000 000000
2013-09-22 02:15:53,-0.01,0.09,0.00,24.29,26.30,28.85,6.05,29.29,1022.97,2055.12,3474.00,3343.75,3626.00,350.49,325.24,15.81,0000 0000 0000 0000 000000
2013-09-22 02:16:53,-0.00,0.09,0.00,24.29,26.30,28.86,5.95,29.38,1022.96,2055.07,3473.99,3343.58,3626.01,350.60,325.12,15.81,0000 0000 0000 0000 000000
2013-09-22 02:17:53,0.00,0.09,0.00,24.31,26.30,28.89,5.93,29.29,1022.97,2055.05,3473.99,3343.58,3626.00,349.11,323.73,15.82,0000 0000 0000 0000 000000
2013-09-22 02:18:54,-0.02,0.09,0.00,24.32,26.30,28.86,5.97,29.42,1022.97,2055.05,3473.99,3343.62,3626.01,349.76,324.33,15.82,0000 0000 0000 0000 000000
2013-09-22 02:19:54,-0.01,0.09,0.00,24.31,26.30,28.85,5.96,29.38,1022.97,2055.04,3473.99,3343.75,3626.00,350.02,324.57,15.83,0000 0000 0000 0000 000000
2013-09-22 02:20:54,-0.04,0.09,0.00,24.32,26.30,28.90,5.96,29.46,1022.97,2055.12,3473.99,3343.80,3626.01,349.64,324.21,15.84,0000 0000 0000 0000 000000
2013-09-22 02:21:54,0.07,0.09,0.00,24.32,26.30,28.86,5.92,29.25,1022.98,2055.13,3473.99,3343.81,3626.01,350.83,325.38,15.84,0000 0000 0000 0000 000000
2013-09-22 02:22:54,0.00,0.09,0.00,24.34,26.30,28.86,6.00,29.29,1022.98,2055.17,3473.99,3343.75,3626.00,350.19,324.70,15.85,0000 0000 0000 0000 000000
2013-09-22 02:23:54,0.05,0.09,0.00,24.32,26.30,28.84,5.98,29.29,1022.99,2055.14,3473.99,3343.77,3626.00,349.69,324.01,15.85,0000 0000 0000 0000 000000
2013-09-22 02:24:55,-0.05,0.09,0.00,24.32,26.30,28.91,6.00,29.42,1023.01,2055.12,3473.99,3343.83,3626.00,350.60,324.49,15.86,0000 0000 0000 0000 000000
2013-09-22 02:25:55,-0.03,0.09,0.00,24.33,26.30,28.87,5.97,29.29,1023.00,2055.10,3473.99,3343.83,3626.00,349.61,324.35,15.87,0000 0000 0000 0000 000000
2013-09-22 02:26:55,0.00,0.09,0.00,24.34,26.30,28.87,5.90,29.29,1023.00,2055.13,3473.99,3343.78,3626.00,349.84,324.36,15.87,0000 0000 0000 0000 000000
2013-09-22 02:27:56,0.04,0.09,0.00,24.35,26.30,28.88,5.95,29.33,1022.98,2055.09,3473.99,3343.60,3626.00,349.72,324.26,15.88,0000 0000 0000 0000 000000
2013-09-22 02:28:56,0.00,0.09,0.00,24.34,26.30,28.83,6.02,29.21,1022.99,2055.07,3473.99,3343.44,3626.00,350.65,324.89,15.88,0000 0000 0000 0000 000000
2013-09-22 02:29:56,0.02,0.09,0.00,24.34,26.30,28.87,5.89,29.25,1022.98,2055.06,3473.97,3343.43,3626.00,349.61,324.16,15.89,0000 0000 0000 0000 000000
2013-09-22 02:30:56,-0.02,0.09,0.00,24.34,26.30,28.84,6.02,29.54,1022.99,2055.04,3473.95,3343.34,3625.99,349.99,324.54,15.90,0000 0000 0000 0000 000000
2013-09-22 02:31:56,0.01,0.09,0.00,24.34,26.30,28.85,5.96,29.33,1022.99,2055.04,3473.98,3343.29,3625.99,350.29,324.92,15.90,0000 0000 0000 0000 000000
2013-09-22 02:32:56,0.01,0.09,0.00,24.33,26.30,28.89,6.01,29.46,1022.98,2055.03,3473.87,3343.16,3625.97,350.47,325.24,15.91,0000 0000 0000 0000 000000
2013-09-22 02:33:57,0.05,0.09,0.00,24.32,26.30,28.90,5.98,29.13,1022.97,2055.03,3473.52,3343.08,3625.97,349.71,324.38,15.91,0000 0000 0000 0000 000000
2013-09-22 02:34:57,0.05,0.09,0.00,24.36,26.30,28.91,5.96,29.25,1022.96,2055.01,3473.49,3343.04,3625.99,349.64,324.17,15.92,0000 0000 0000 0000 000000
2013-09-22 02:35:57,-0.02,0.09,0.00,24.36,26.30,28.88,6.04,29.42,1022.96,2055.02,3473.37,3343.04,3625.98,350.59,325.13,15.92,0000 0000 0000 0000 000000